Flag for Germany Weather past 2 weeks in Unna, North Rhine-Westphalia, Germany

Now
59 °F

Scattered clouds.


Feels Like: 56 °F
Forecast: 47 / 59 °F
Wind: 14 mph from Southwest

Location: Dortmund / Wickede

Current Time: May 29, 2015 at 5:16:39 PM

Latest Report: May 29, 2015 at 4:20 PM


Visibility: N/A

Pressure: 29.77 "Hg

Humidity: 51%

Dew point: 41 °F

Location of UnnaLocation

Historic Weather in Unna — Graph

°F

Unna temperature yesterday

Maximum temperature yesterday: 64 °F (at 1:50 PM)
Minimum temperature yesterday: 50 °F (at 10:50 PM)
Average temperature yesterday: 57 °F

Past Weeks' High & Low Weather Summary

 TemperatureHumidityPressure
High68 °F (May 22, 3:50 PM)94% (May 25, 11:50 AM)30.33 "Hg (May 25, 11:50 AM)
Low39 °F (May 16, 5:20 AM)32% (May 21, 3:50 PM)29.62 "Hg (May 18, 7:20 PM)
Average55 °F61%30.04 "Hg
* Reported May 14 4:20 PM — May 29 4:20 PM, Unna, Weather by CustomWeather, © 2015

Note: Actual official high and low records may vary slightly from our data, if they occured in-between our weather recording intervals... More about our weather records

Advertising

Unna weather history for previous 24 hours

 ConditionsComfort  
Time TempWeatherWind HumidityBarometerVisibility
4:20 PM
Fri, May 29
59 °FScattered clouds.14 mph51%29.77 "HgN/A
3:50 PM61 °FPassing clouds.17 mph52%29.77 "HgN/A
3:20 PM59 °FScattered clouds.15 mph51%29.77 "HgN/A
2:50 PM61 °FScattered clouds.15 mph52%29.77 "HgN/A
2:20 PM59 °FSunny.13 mph51%29.77 "Hg10 mi
1:50 PM59 °FPartly sunny.15 mph55%29.80 "HgN/A
1:20 PM59 °FPartly sunny.13 mph55%29.80 "HgN/A
12:50 PM59 °FScattered clouds.12 mph59%29.80 "HgN/A
12:20 PM57 °FScattered clouds.14 mph59%29.83 "HgN/A
11:50 AM57 °FScattered clouds.14 mph59%29.83 "HgN/A
11:20 AM55 °FScattered clouds.14 mph63%29.86 "HgN/A
10:50 AM55 °FScattered clouds.12 mph67%29.86 "HgN/A
10:20 AM55 °FPartly sunny.10 mph72%29.86 "HgN/A
9:50 AM54 °FPartly sunny.12 mph77%29.86 "HgN/A
9:20 AM54 °FSunny.9 mph77%29.86 "Hg10 mi
8:50 AM52 °FSunny.8 mph82%29.86 "Hg10 mi
8:20 AM52 °FPassing clouds.7 mph82%29.86 "HgN/A
7:50 AM52 °FSunny.3 mph82%29.89 "Hg10 mi
7:20 AM50 °FClear.7 mph88%29.89 "Hg6 mi
6:50 AM50 °FClear.6 mph82%29.89 "Hg6 mi
6:20 AM50 °FClear.7 mph88%29.89 "Hg6 mi
5:50 AM50 °FClear.7 mph88%29.89 "Hg5 mi
5:20 AM48 °FClear.9 mph94%29.89 "Hg5 mi
10:50 PM
Thu, May 28
50 °FPassing clouds.5 mph88%29.95 "HgN/A
10:20 PM52 °FPartly sunny.6 mph88%29.95 "HgN/A
9:50 PM52 °FSunny.8 mph88%29.95 "Hg10 mi
9:20 PM52 °FSunny.9 mph88%29.92 "Hg10 mi
8:50 PM52 °FBroken clouds.9 mph88%29.92 "HgN/A
8:20 PM52 °FLight rain. Partly sunny.6 mph88%29.92 "HgN/A
7:50 PM52 °FLight rain. Clear.10 mph88%29.92 "Hg4 mi
7:20 PM52 °FSprinkles. Partly sunny.12 mph88%29.92 "Hg4 mi
6:50 PM54 °FScattered showers. Clear.10 mph82%29.92 "HgN/A
6:20 PM54 °FSprinkles. Clear.9 mph82%29.92 "HgN/A
5:50 PM52 °FSprinkles. Partly sunny.9 mph88%29.92 "Hg4 mi
5:20 PM54 °FSprinkles. Partly sunny.20 mph82%29.92 "HgN/A
Weather by CustomWeather, © 2015

See weather overviewHow to use our weather pages